Location: *
(51.5000°N, 0.1100°W)
Time: 16:54:10
(UTC+00:00)

Cosmos 1655 Rocket - Pass Details

Date: 25 May 2024
Orbit: 971 x 1005 km, 82.9° (Epoch: 16 June)

Event Time Altitude Azimuth Distance (km) Brightness Sun altitude
Exits shadow 00:31:59 25° 207° (SSW) 1,908 5.0 -17.1°
Maximum altitude 00:35:52 66° 283° (WNW) 1,090 4.2 -17.0°
Drops below altitude 10° 00:42:16 10° 6° (N) 2,790 7.7 -16.8°
Sets 00:44:51 0° 9° (N) 3,746 8.9 -16.7°
